Weather History for KEUF - October, 2013

Change the Weather History Date:

Wednesday, October 23, 2013

  Actual Average (KLSF) Record (KLSF)
Temperature  
Mean Temperature 60 °F -  
Max Temperature 73 °F 74 °F 87 °F (2007)
Min Temperature 45 °F 48 °F 35 °F (1997)
Degree Days  
Heating Degree Days 6    
Growing Degree Days 10 (Base 50)    
Moisture  
Dew Point 45 °F    
Average Humidity 64    
Maximum Humidity 90    
Minimum Humidity 27    
Precipitation  
Precipitation 0.00 in - - ()
Sea Level Pressure  
Sea Level Pressure 29.98 in    
Wind  
Wind Speed 3 mph (WNW)    
Max Wind Speed 9 mph    
Max Gust Speed 17 mph    
Visibility 10 miles    
Events Rain    
Averages and records for this station are not official NWS values.
T = Trace of Precipitation, MM = Missing Value Source: NWS Daily Summary

Daily Weather History Graph

Daily Weather History Graph

Search for Another Location

Airport or City:

Trip Planner

Search our weather history database for the weather conditions in past years. The results will help you decide how hot, cold, wet, or windy it might be!

Date:

Astronomy

Oct. 23, 2013 Rise Set
Actual Time 6:50 AM CDT 5:59 PM CDT
Civil Twilight 6:25 AM CDT 6:23 PM CDT
Nautical Twilight 5:56 AM CDT 6:52 PM CDT
Astronomical Twilight 5:28 AM CDT 7:20 PM CDT
Moon 9:38 PM CDT (10/23) 10:57 AM CDT (10/23)
Length of Visible Light 11h 58m
Length of Day
11h 09m
Waning Gibbous, 79% of the Moon is Illuminated
Oct 23
Waning Gibbous
Oct 26
Last Quarter
Nov 3
New
Nov 9
First Quarter
Nov 17
Full

Hourly Weather History & Observations

Time (CDT) Temp. Dew Point Humidity Pressure Visibility Wind Dir Wind Speed Gust Speed Precip Events Conditions
12:58 AM 59.0 °F 53.1 °F 81% 29.89 in 10.0 mi Calm Calm - N/A   Clear
1:58 AM 57.9 °F 53.1 °F 84% 29.90 in 10.0 mi Calm Calm - N/A   Clear
2:58 AM 59.0 °F 53.1 °F 81% 29.90 in 10.0 mi NW 6.9 mph - N/A   Clear
3:58 AM 57.0 °F 53.1 °F 87% 29.90 in 10.0 mi WNW 3.5 mph - N/A   Clear
4:58 AM 55.0 °F 51.1 °F 86% 29.91 in 10.0 mi West 3.5 mph - N/A   Clear
5:58 AM 55.0 °F 48.9 °F 80% 29.93 in 10.0 mi WNW 4.6 mph - N/A   Clear
6:58 AM 53.1 °F 48.9 °F 86% 29.95 in 10.0 mi WNW 3.5 mph - N/A   Clear
7:58 AM 57.0 °F 48.9 °F 74% 29.97 in 10.0 mi Variable 5.8 mph - N/A   Clear
8:05 AM 57.2 °F 48.2 °F 72% 29.97 in 10.0 mi WNW 5.8 mph - N/A   Partly Cloudy
8:58 AM 62.1 °F 48.9 °F 62% 29.98 in 10.0 mi WNW 5.8 mph - 0.00 in   Clear
9:58 AM 64.0 °F 48.0 °F 56% 29.99 in 10.0 mi Variable 6.9 mph 16.1 mph N/A   Clear
10:58 AM 68.0 °F 46.0 °F 45% 29.99 in 10.0 mi WNW 8.1 mph - N/A   Clear
11:58 AM 71.1 °F 43.0 °F 36% 29.99 in 10.0 mi NW 9.2 mph - N/A   Clear
12:58 PM 72.0 °F 39.0 °F 30% 29.97 in 10.0 mi Variable 5.8 mph - N/A   Clear
1:58 PM 71.1 °F 37.0 °F 29% 29.96 in 10.0 mi Variable 5.8 mph 17.3 mph N/A   Clear
2:58 PM 73.0 °F 39.0 °F 29% 29.95 in 10.0 mi West 8.1 mph - N/A   Clear
3:58 PM 71.1 °F 35.1 °F 27% 29.97 in 10.0 mi Variable 4.6 mph - N/A   Clear
4:58 PM 69.1 °F 37.0 °F 31% 29.99 in 10.0 mi Variable 4.6 mph - 0.00 in   Clear
5:58 PM 62.1 °F 42.1 °F 48% 30.01 in 10.0 mi NW 3.5 mph - N/A   Clear
6:58 PM 55.0 °F 46.0 °F 72% 30.03 in 10.0 mi Calm Calm - 0.00 in   Clear
7:58 PM 53.1 °F 45.0 °F 74% 30.05 in 10.0 mi NW 3.5 mph - 0.00 in Rain Light Rain
8:58 PM 52.0 °F 44.1 °F 74% 30.07 in 10.0 mi Calm Calm - 0.00 in Rain Light Rain
9:58 PM 51.1 °F 42.1 °F 71% 30.10 in 10.0 mi Calm Calm - 0.00 in   Clear
10:58 PM 46.9 °F 43.0 °F 86% 30.11 in 10.0 mi Calm Calm - 0.00 in Rain Light Rain
11:58 PM 45.0 °F 42.1 °F 90% 30.10 in 10.0 mi Calm Calm - 0.00 in Rain Light Rain